Regional Weather Roundup
Issued by NWS

Home | Current Version | Previous Version | Graphics & Text | Print | Product List | Glossary Off
Versions: 1 2 3 4 5 6 7 8 9 10 11 12 13 14 15 16 17 18 19 20 21 22 23 24 25 26 27 28 29 30 31 32 33 34 35 36 37 38 39 40 41 42 43 44 45 46 47 48 49 50

000
ASUS43 KLSX 150907
RWRMO

WEATHER SUMMARY FOR MISSOURI
NATIONAL WEATHER SERVICE SPRINGFIELD MO
400 AM CDT MON SEP 15 2014

NOTE: "FAIR" INDICATES FEW OR NO CLOUDS BELOW 12,000 FEET WITH NO
       SIGNIFICANT WEATHER AND/OR OBSTRUCTIONS TO VISIBILITY.
       CURRENT SKY AND/OR WEATHER CONDITIONS ARE NOT AVAILABLE FOR
       CHILLICOTHE AND FARMINGTON.

MOZ001>031-035>038-043-044-053-054-151000-
...NORTHERN AND WESTERN MISSOURI...

CITY           SKY/WX    TMP DP  RH WIND       PRES   REMARKS
KANSAS CTY INT CLOUDY    63  59  87 S9        30.04F
KANSAS C DTWN  CLOUDY    65  58  78 S6        30.05F
LEE`S SUMMIT   PTCLDY    61  57  87 VRB5      30.07F
ST JOSEPH      MOCLDY    63  59  87 S6        30.04F
CHILLICOTHE      N/A     64  55  72 E3        30.09F
KIRKSVILLE     CLOUDY    59  55  87 CALM      30.12S

$$
MOZ066>068-077>081-088>096-101>105-151000-
...SOUTHWEST MISSOURI...

CITY           SKY/WX    TMP DP  RH WIND       PRES   REMARKS
SPRINGFIELD    CLOUDY    65  57  75 S16       30.13R
JOPLIN         CLOUDY    66  60  81 S14       30.11S

$$
MOZ032>034-039>042-045>050-055>058-069>072-151000-
...CENTRAL MISSOURI...

CITY           SKY/WX    TMP DP  RH WIND       PRES   REMARKS
COLUMBIA       MOCLDY    57  53  86 SE6       30.13S
JEFFERSON CITY PTCLDY    57  53  86 CALM      30.13S
ROLLA          MOCLDY    57  50  77 S7        30.13R
SEDALIA        PTCLDY    57  53  86 SE5       30.11S
OSAGE BEACH    CLOUDY    61  52  72 SE3       30.12F

$$
MOZ051-052-059>065-151000-
...EAST CENTRAL MISSOURI...

CITY           SKY/WX    TMP DP  RH WIND       PRES   REMARKS
ST LOUIS INTL  CLOUDY    62  50  64 SE6       30.15F
SPIRIT OF STL  CLOUDY    58  55  90 CALM      30.14S
ST CHARLES     CLOUDY    58  53  84 E5        30.15S

$$
MOZ072>076-082>087-097>100-106>115-151000-
...SOUTH CENTRAL AND SOUTHEAST MISSOURI...

CITY           SKY/WX    TMP DP  RH WIND       PRES   REMARKS
CAPE GIRARDEAU PTCLDY    54  52  93 CALM      30.16F
FARMINGTON     PTCLDY    55  52  88 CALM      30.17F
POPLAR BLUFF   MOCLDY    57  54  89 CALM      30.15F
WEST PLAINS    CLOUDY    61  51  70 S7        30.18S

$$


USA.gov is the U.S. government's official web portal to all federal, state and local government web resources and services.